DECAYED

CZ-4 DEB, 26754 (Decayed)

Orbit data source: Space-Track

CZ-4 DEB, 26754 was space debris in SSO originally from a launch on Thu, 14 Oct 1999 UTC launched from the Taiyaun Space Center, China (TSC). Debris objects in space refer to the collection of defunct objects orbiting the Earth. Examples of debris include non-operational satellites, rocket bodies, and fragments generated from explosions, collisions, or faulty payload assembly.

Loading next visibility...
Identifier
26754, 1999-057MB
Orbit
Decayed
Country
Flag of CNCN / PRC
Related business
Manufacturer
Unknown
Mission
Decayed spacecraft
Bus & Motor
Unknown
Mass
Unknown
Launch date (UTC)
1999-10-14 (26 years ago)
Launch vehicle
Unknown
Launch site
Taiyaun Space Center, China (TSC)
Object type
Payload
Rocket body
Debris
Shape & HBR
Unknown shape, 0.1 m
Radar Cross Section
Small (<0.1 m²)

Expand to show TLE details & history
Last TLE update: 10 months ago

TLE from 10 months ago
0 CZ-4 DEB
1 26754U 99057MB  25008.43803902  .02032151  23131-2  68544-2 0  9993
2 26754  98.4505 180.7343 0013455 297.5004  62.4898 15.90393532275863
Epoch: 2025-01-08T10:30Z
TLE epoch observation values (Epoch: 2025-01-08T10:30:46.571Z)
Latitude
0.00002°
Longitude
-85.1906°
Altitude
300.19 km
Speed
7.73 km/s
True Right ascension
12h 02m 56s
True Declination
0° 00' 00"
Sunlit
Object was in full shadow at epoch
Visualization orbit readout
Latitude
Unknown
Longitude
Unknown
Altitude
Unknown
Speed
Unknown
Apparent Right ascension
Unknown
Apparent Declination
Unknown
Sunlit
N/A
Visualization observer readout
Local Sidereal Time
11:01:53
Azimuth
Unknown
Elevation
Unknown
Doppler factor
Unknown
Orbital elements
Apogee altitude
307.086 km
Perigee altitude
289.12 km
Semi-major axis
6,676.24 km
Eccentricity
0.00135
Inclination
98.4505°
RAAN
180.7343°
Arg. of periapsis
297.5004°
True anomaly
62.62666°
Mean anomaly
62.4898°
Eccentric anomaly
62.55822°
Mean motion
3.97874 °/min
Orbital period
90.48 mins
BSTAR
0.0068544
Loading maneuver chart data...
Computing Atmospheric mass density...
Loading historical data...
Loading historical data...
Loading historical data...
Loading historical data...
Loading historical data...
Loading historical data...
Loading historical data...

Documentation

Showing up to 5 results
|